Location: Newark
(51.3318°N, 0.0053°E)
Time: 14:02:01
(UTC+00:00)

CAS-6 - Pass Details

Date: 02 July 2022
Orbit: 613 x 634 km, 97.9° (Epoch: 08 August)

Event Time Altitude Azimuth Distance (km) Brightness Sun altitude
Exits shadow 21:57:50 15° 159° (SSE) 1,712 ? -10.7°
Maximum altitude 22:01:28 79° 74° (ENE) 643 ? -10.9°
Drops below altitude 10° 22:05:50 10° 348° (NNW) 2,002 ? -11.3°
Sets 22:08:01 0° 347° (NNW) 2,909 ? -11.4°
